sat.trackr.live / text

‹ back to catalog

STARLINK-6108

NORAD 57155 · 2023-090BG

PAYLOAD ACTIVE UNKNOWN

§ Identity

Operator
Country
US
Launch date
2023-06-23
Launch site
AFETR
Launch vehicle
Mass (kg)
RCS (m²)

Purposes: comms

External: N2YO · Heavens-Above · Gunter

§ Orbital elements

Epoch: 2026-09-20T15:23:21.973920Z

Period
94.27 min
Inclination
43.0010°
Eccentricity
0.0000889
Mean motion
15.27579552 rev/d
Perigee alt
482.4 km
Apogee alt
483.7 km
Semi-major
6,861.2 km
B*
1.7916e-5
RAAN
242.7812°
Arg perigee
266.3611°
Mean anomaly
93.7139°
Rev number
18,035

§ Raw data

STARLINK-61081 57155U 23090BG  26263.64122655  .00000231  00000+0  17916-4 0  99902 57155  43.0010 242.7812 0000889 266.3611  93.7139 15.27579552180356

JSON: /api/v1/satellites/57155 · /tle

For live sub-satellite position, see the globe view (requires WebGL).

§ Visibility from observer

Set your observer location to see the next 7 days of passes ≥ 10°. The values pass through the URL so the page stays shareable.

No JS? Fill the form by hand. The geolocation button needs JavaScript.